Погода в Джикимде

Погода в Джикимде : погода сейчас, прогноз погоды и архив. Всё, что Вы хотите узнать о погоде в Джикимде!

Поиск расширенной информации на нашем сайте:

Другие новости

Новости СМИ2

Главная страница сайта

Новости сайта

03.07.2017

Напоминаем, что на нашем специализированном сайте Метеоцентр.Азия вы можете получить высокодетализированные автоматические прогнозы погоды по пунктам России, СНГ и мира в авиационном формате (включающие направление и скорость ветра, видимость, явления погоды, количество и форму облачности, нижнюю и верхнюю границу облачности).


Погода в Джикимде - сегодня

Время (UTC), дата Ветер
(°,м/с) 
Видим.   Явления Облачность Т
(°С)
Тd
(°С)
f(%) Тe
(°С)
Pmin
(гПа)
dP
(гПа)
Po
(мм)
O2
(г/м3)
Тmin Tmax R s Состояние
почвы
06 18.07.17 070 (В) 20000 м    10/10 600 м кучево-дожд. 
[Cb cap]
+15.6 +12.5 82 +21  1006  739  279           
09 18.07.17 060 (СВ) 20000 м    10/10 600 м 
[Cu Sc]
+16.7 +8.3 58 +18  1006.7  0.7  740  279           
12 18.07.17 тихо ()   20000 м    9/8 1000 м верхняя 
[Sc|Ci fib]
+14.9 +10.5 75 +17  1007.5  0.8  740  281    +17.6       
15 18.07.17 тихо ()   20000 м    8/4 1000 м верхняя 
[Sc|Ci fib]
+12.1 +9.3 83 +13  1007.9  0.2  740  284           
18 18.07.17 тихо ()   20000 м    6/3 1000 м верхняя 
[Sc|Ci fib]
+10.6 +9 90 +11  1008.3  0.2  740  286           
21 18.07.17 тихо ()   20000 м    3/3 1000 м 
[Cu hum]
+9.9 +9.7 99 +11  1008.9  0.5  741  286           
00 19.07.17 тихо ()   20000 м    ясно 
+14.2 +11.4 83 +18  1008.9  0.3  741  282  +9.3        сухая 
03 19.07.17 050 (СВ) 20000 м    9/3 600 м верхняя 
[Cu hum|Ci fib]
+20 +10.2 53 +22  1007.4  -1  740  276           
06 19.07.17 330 (СЗ) 20000 м    6/3 600 м верхняя 
[Cu hum|Ci fib]
+23.4 +3.2 27 +23  1005.8  -1.2  739  274           
09 19.07.17 020 (С) 2{11}  20000 м    8/5 600 м верхняя 
[Cu med, cong|Cc]
+24.3 +6.9 33 +24  1004.9  -0.9  739  272           
12 19.07.17 тихо ()   20000 м    8/8 1000 м 
[Sc]
+20.9 +8.6 45 +21  1004.8  -0.2  739  275    +24.9       
15 19.07.17 тихо ()   20000 м    6/6 1000 м 
[Sc]
+11.5 +8.7 83 +12  1006.1  0.6  739  284           
18 19.07.17 тихо ()   20000 м    8/8 1000 м 
[Sc]
+9.5 +8.9 96 +10  1006.8  0.5  739  286           
21 19.07.17 тихо ()   20000 м    8/8 1000 м 
[Sc]
+6.9 +6.7 99 +7  1007.3  0.2  740  289           
00 20.07.17 тихо ()   20000 м    10/8 1000 м средняя 
[Sc|Ac As]
+10.8 +9.4 91 +11  1007.4  0.6  740  285  +6.9        сухая 
03 20.07.17 290 (З) 20000 м    8/3 600 м средняя 
[Sc|Ac cast]
+18.6 +11.3 62 +23  1005.9  -1  739  277           
06 20.07.17 290 (З) 20000 м  гроза без осадков{ливн. осадки}  9/6 600 м кучево-дожд., верхняя 
[Cb cap|Ci ing]
+16 +13.9 87 +24  1006.3  0.1  739  279           
09 20.07.17 270 (З) 20000 м  {гроза, ливн. осадки}  8/5 600 м кучево-дожд., верхняя 
[Cb cap|Ci fib]
+18.9 +14.6 76 +28  1006.6  0.6  740  276           
12 20.07.17 070 (В) 20000 м  {гроза, ливн. осадки}  8/6 600 м кучево-дожд., верхняя 
[Cb cap|Ci fib]
+16.2 +14.3 89 +26  1007.8  0.9  740  279    +18.9     
15 20.07.17 тихо ()   20000 м    3/3 600 м 
[Sc]
+11.1 +10.9 99 +14  1009.3  1.1  741  285           
18 20.07.17 тихо ()   20000 м    ясно 
+9 +8.8 99 +9  1010.4  742  288           
21 20.07.17 тихо ()   <0050 м  туман  ?/?  
+10.9 +10.9 100 +13  1010  -0.3  742  285           
00 21.07.17 тихо ()   20000 м  {туман}  10/10 600 м кучево-дожд. 
[Cb cap]
+12.8 +11.7 93 +17  1010.2  0.4  742  283  +9        сухая 
03 21.07.17 тихо ()   20000 м    5/5 600 м 
[Cu med, cong]
+16.9 +13.5 80 +23  1009.1  -0.8  741  279           
06 21.07.17 050 (СВ) 20000 м    8/5 600 м кучево-дожд., верхняя 
[Cb cap|Ci ing]
+20.3 +13.9 67 +27  1007.8  -1  741  275           
Время (UTC), дата Ветер
(°,м/с) 
Видим.   Явления Облачность Т
(°С)
Тd
(°С)
f(%) Тe
(°С)
Pmin
(гПа)
dP
(гПа)
Po
(мм)
O2
(г/м3)
Тmin Tmax R s Состояние
почвы

Для получения пояснительной информации подведите курсор к названию столбца.

ПОГОДА в Джикимде - архив

Всё, что Вы хотите узнать о погоде в Джикимде - удобно и подробно!

Выберите нужную дату (начиная с 1 января 2015* года) и нажмите кнопку "Найти".
Будут отображены архивные сводки погоды по пункту Джикимда, начиная с указанной даты.


Отображать данные в формате CSV (для использования в таблицах Excel)


Внимание! Наш архив погоды предназначен исключительно для личного некоммерческого использования в познавательных целях. Если Вам необходимы официальные справки о состоянии погоды (для производственных, юридических, коммерческих и т.п. целей), обращайтесь в органы Росгидромета.

*Примечание: данная дата относится к архиву по метеостанциям СССР (Россия, СНГ, Балтия).
Архив по метеостанциям Зарубежной Европы и Азии (кроме Китая) хранится 10 дней, по другим регионам земного шара (Китай, Африка, Америка, Австралия, Океания) - 1 день.

Джикимда - район местоположения метеостанции


Название, широта, долгота, высота метеостанции:
Джикимда 59°ш. 121.8°д. 170 м над ур. моря [Российская Федерация]

Дополнительная информация

В oтличие oт бoльшинства пoгoдных сайтoв мы публикуем пoдрoбную метеoинфoрмацию в детальнoм прoфессиoнальнoм фoрмате.

Характеристики температуры и влажнoсти вoздуха измеряются на высoте 2 м в тени вдали oт зданий и деревьев.
Скoрoсть ветра измеряется на высoте 10 м (на урoвне рoста челoвека скoрoсть ветра ниже в 1.5-2 раза). Если метеoстанция нахoдится в гoрoде или в лесу, тo скoрoсть ветра занижена на 2-4 м/с пo сравнению с oткрытым местoм. Скoрoсть ветра над акватoриями крупных рек и oзёр, а также на вершинах хoлмoв на 2-5 м/с выше, чем в oбычных услoвиях.
Атмoсфернoе давление в разных тoчках местнoсти мoжет значительнo oтличаться oт давления на метеoстанции, в зависимoсти oт услoвий рельефа (при пoдъёме на 10 м давление пoнижается примернo на 1 мм рт.ст.).